TimeEST,TemperatureF,Dew PointF,Humidity,Sea Level PressureIn,VisibilityMPH,Wind Direction,Wind SpeedMPH,Gust SpeedMPH,PrecipitationIn,Events,Conditions,WindDirDegrees,DateUTC
12:53 AM,52.0,46.9,83,30.19,10.0,Calm,Calm,-,N/A,,Clear,0,2013-11-11 05:53:00
1:53 AM,51.1,48.0,89,30.19,10.0,Calm,Calm,-,N/A,,Clear,0,2013-11-11 06:53:00
2:53 AM,50.0,46.0,86,30.19,10.0,Calm,Calm,-,N/A,,Clear,0,2013-11-11 07:53:00
3:53 AM,48.9,45.0,86,30.19,10.0,Calm,Calm,-,N/A,,Clear,0,2013-11-11 08:53:00
4:53 AM,50.0,45.0,83,30.19,10.0,Calm,Calm,-,N/A,,Clear,0,2013-11-11 09:53:00
5:53 AM,48.0,44.1,86,30.20,10.0,Calm,Calm,-,N/A,,Clear,0,2013-11-11 10:53:00
6:53 AM,46.0,42.1,86,30.21,10.0,Calm,Calm,-,N/A,,Clear,0,2013-11-11 11:53:00
7:53 AM,51.1,46.0,83,30.21,10.0,Calm,Calm,-,N/A,,Clear,0,2013-11-11 12:53:00
8:53 AM,60.1,48.0,64,30.23,10.0,Calm,Calm,-,N/A,,Clear,0,2013-11-11 13:53:00
9:53 AM,66.9,43.0,42,30.22,10.0,NE,4.6,-,N/A,,Clear,50,2013-11-11 14:53:00
10:53 AM,72.0,43.0,35,30.22,10.0,Calm,Calm,-,N/A,,Clear,0,2013-11-11 15:53:00
11:53 AM,73.9,43.0,33,30.19,10.0,Variable,4.6,-,N/A,,Clear,0,2013-11-11 16:53:00
12:53 PM,77.0,43.0,30,30.17,10.0,NNE,5.8,-,N/A,,Clear,20,2013-11-11 17:53:00
1:53 PM,78.1,43.0,29,30.14,10.0,East,5.8,-,N/A,,Clear,90,2013-11-11 18:53:00
2:53 PM,79.0,44.1,29,30.12,10.0,Calm,Calm,-,N/A,,Clear,0,2013-11-11 19:53:00
3:53 PM,79.0,45.0,30,30.12,10.0,NNW,5.8,-,N/A,,Clear,330,2013-11-11 20:53:00
4:53 PM,77.0,46.0,33,30.13,10.0,NNE,4.6,-,N/A,,Clear,20,2013-11-11 21:53:00
5:53 PM,72.0,48.9,44,30.13,10.0,Calm,Calm,-,N/A,,Clear,0,2013-11-11 22:53:00
6:53 PM,64.0,51.1,63,30.14,10.0,Calm,Calm,-,N/A,,Clear,0,2013-11-11 23:53:00
7:53 PM,59.0,50.0,72,30.15,10.0,Calm,Calm,-,N/A,,Clear,0,2013-11-12 00:53:00
8:53 PM,57.0,50.0,77,30.15,10.0,Calm,Calm,-,N/A,,Clear,0,2013-11-12 01:53:00
9:53 PM,55.0,48.9,80,30.16,10.0,Calm,Calm,-,N/A,,Clear,0,2013-11-12 02:53:00
10:53 PM,53.1,48.0,83,30.16,10.0,Calm,Calm,-,N/A,,Clear,0,2013-11-12 03:53:00
11:53 PM,52.0,46.9,83,30.15,10.0,Calm,Calm,-,N/A,,Clear,0,2013-11-12 04:53:00